Temp
29 27 27 26 27 29 30 30 30 31 32 32 31 30 29 28 29 35 37 38 39 35 33 34 33 32 31 31 32 32 32 32 29 29 30 30 30 31 30 31 31 31 31 31 32 32 32 31 31 31 30 29 29 29 28 29 28 27 27 26 26 26 26 26 26 26 26 26 26 26 26 27 27 27 27 26 26 26 25 25 25 24 24 24 24 24
29 26 26 28 29 30 31 31 31 31 32 32 30 29 28 28 29 35 38 38 39 35 32 34 33 31 32 31 32 32 32 31 30 30 30 30 30 30 29 30 30 30 31 32 31 32 32 31 31 31 30 29 29 29 28 29 28 28 27 26 26 26 26 26 26 26 26 26 26 26 27 27 27 27 27 27 26 26 26 25 25 25 25 24 24 25
27 26 28 30 31 31 31 32 32 31 32 31 30 28 26 29 31 33 38 39 39 35 32 34 33 31 32 32 32 32 31 31 31 31 30 30 30 29 29 29 29 29 30 31 31 32 32 31 31 31 30 30 29 29 28 29 28 28 27 27 26 26 26 26 26 26 26 26 26 26 27 27 27 27 27 27 26 26 26 26 26 26 25 25 24 24
24 26 29 31 31 31 31 31 32 31 32 31 30 27 25 30 30 28 34 39 39 36 33 33 32 31 32 32 32 32 31 32 32 32 31 30 30 29 29 29 29 29 29 30 31 32 32 31 31 31 30 30 29 28 28 28 28 28 27 27 26 26 26 26 26 26 26 26 26 26 26 27 27 27 28 28 27 26 26 26 26 26 25 25 25 24
26 29 31 31 31 31 31 31 32 30 29 31 31 29 27 30 30 29 33 37 38 36 35 33 28 27 30 31 31 32 32 33 33 32 31 30 30 29 29 28 28 29 29 29 31 32 31 31 31 31 30 30 29 28 28 28 28 28 27 27 26 26 26 26 26 26 26 26 26 26 26 27 27 27 27 28 27 26 26 26 26 26 25 25 25 24
29 31 32 31 31 31 31 31 32 30 27 28 32 32 31 32 32 33 34 34 30 29 33 32 23 23 29 30 31 32 32 32 32 32 30 29 29 29 29 28 28 29 29 29 30 32 31 31 31 30 30 30 29 28 28 28 28 28 27 27 26 26 26 26 26 25 26 26 26 26 27 27 27 27 27 28 27 26 26 26 26 26 25 25 25 24
30 32 32 31 31 31 31 30 32 32 27 25 31 34 34 34 33 32 33 30 24 25 33 34 25 22 26 29 32 32 32 31 31 31 30 29 29 28 29 29 28 29 29 29 30 32 32 31 31 30 30 30 29 29 29 28 28 28 27 27 26 26 26 26 26 26 26 26 26 27 27 27 27 27 27 28 28 27 26 26 26 26 26 26 25 25
31 32 31 32 32 31 30 29 32 33 28 26 32 35 34 34 33 33 32 28 27 28 32 34 30 23 22 27 32 32 31 31 31 31 30 29 29 29 29 29 29 30 30 29 30 31 32 31 31 30 30 30 30 29 29 28 28 28 28 27 26 26 26 26 26 26 26 26 26 27 27 27 27 27 28 28 28 27 27 26 27 26 26 26 25 25
32 31 31 32 31 30 30 31 33 33 30 30 34 35 34 35 34 34 32 28 29 28 24 28 30 25 21 26 32 32 30 30 30 30 30 30 29 29 29 30 30 30 30 30 30 31 32 31 31 31 31 31 30 29 29 29 28 28 28 27 26 26 26 26 26 26 26 26 26 27 27 27 27 28 28 28 28 28 27 27 26 26 26 26 26 25
31 31 31 31 30 30 31 33 34 33 32 33 34 34 34 35 35 35 32 28 27 25 22 25 28 24 22 25 29 30 28 29 31 31 30 30 29 29 29 30 30 31 31 30 31 31 32 32 32 31 31 31 31 30 29 29 28 28 28 27 27 26 26 26 26 26 26 26 26 27 27 27 27 27 28 28 28 28 28 27 27 26 26 26 26 26
31 31 31 31 31 32 33 33 34 34 34 34 34 33 33 33 34 33 31 28 25 23 23 25 27 26 23 24 27 29 30 31 32 32 31 30 30 30 29 30 30 31 31 31 31 31 31 32 32 31 31 31 31 30 29 29 28 28 27 27 27 26 26 26 26 26 26 26 26 27 27 27 27 27 27 28 28 27 27 28 27 26 26 27 27 26
30 30 31 32 32 33 33 33 33 34 34 34 34 32 28 28 28 27 27 26 23 22 24 26 28 26 22 24 29 32 33 33 33 32 32 30 30 30 29 30 31 31 31 31 31 31 31 31 31 31 31 31 31 30 29 29 28 28 27 27 27 26 26 26 26 26 26 26 26 26 27 27 28 27 27 27 28 28 27 28 27 27 27 26 27 27
29 30 31 31 32 33 32 31 31 33 33 33 31 28 24 23 24 23 22 23 22 22 25 28 28 25 23 27 33 34 34 34 33 33 32 31 30 30 30 30 31 31 32 32 32 31 31 31 31 31 31 31 31 30 29 29 28 28 27 27 26 26 26 26 25 25 25 26 26 26 27 27 27 27 27 27 27 28 28 28 28 27 27 26 26 27
25 29 31 31 31 33 32 29 27 29 31 31 28 25 23 22 22 22 22 22 22 22 25 28 27 24 24 30 36 36 35 35 34 34 33 32 31 30 30 30 31 32 32 32 32 31 31 31 31 31 31 30 30 30 29 29 28 28 27 27 26 26 26 26 25 25 25 25 26 26 26 27 27 27 27 27 27 27 28 28 28 27 27 27 26 27
22 24 28 29 29 31 33 31 29 30 31 31 32 29 24 23 22 22 22 22 22 22 24 27 26 23 23 30 37 38 37 36 35 34 34 32 32 31 30 31 31 32 32 32 32 32 31 31 31 31 31 30 30 30 30 29 29 28 27 27 26 26 26 26 25 25 25 25 25 26 26 26 27 27 27 27 27 27 27 28 28 28 27 27 27 27
21 22 26 28 28 30 31 32 33 32 29 30 33 29 24 26 25 23 23 23 23 22 23 24 24 26 29 34 38 38 37 38 36 35 34 33 32 31 30 31 31 32 32 32 32 32 31 31 30 31 31 30 30 30 30 29 29 28 27 27 26 26 26 26 25 25 25 25 25 25 26 26 26 27 27 27 27 27 27 27 28 28 27 27 27 27
21 21 26 27 28 30 30 30 32 31 28 29 29 26 27 32 30 23 22 24 23 22 23 23 24 28 31 33 37 38 37 38 37 36 35 33 32 31 31 31 31 32 32 32 32 32 31 31 30 30 31 31 31 30 30 30 29 28 28 27 26 26 26 26 25 25 25 25 25 25 26 26 26 26 27 27 27 27 27 27 27 27 27 27 27 27
21 21 25 27 27 28 29 29 31 32 31 28 25 27 32 33 31 26 22 23 23 22 23 23 23 24 25 27 34 37 37 37 38 37 35 33 32 31 31 32 32 32 33 32 32 32 32 31 30 30 30 31 31 30 30 30 29 29 28 27 27 26 26 26 26 25 25 25 25 25 25 26 26 26 26 27 27 27 27 27 27 27 27 27 27 27
23 21 23 26 26 27 29 28 28 31 33 30 28 31 31 26 25 25 23 22 22 22 23 23 23 24 23 25 31 35 36 37 38 37 34 33 32 32 32 32 32 33 33 33 32 32 31 31 30 30 30 30 31 30 30 30 30 29 28 27 27 26 26 26 26 26 25 25 25 25 25 26 26 26 26 27 27 27 27 27 27 27 27 27 27 27
24 21 21 25 26 26 27 27 25 26 30 32 31 32 30 26 24 24 24 23 22 22 22 23 23 23 26 30 33 35 37 37 38 37 34 32 33 32 33 33 33 33 33 33 33 32 31 31 31 31 30 30 30 30 30 30 30 29 29 28 27 27 26 26 26 26 25 25 25 25 25 25 26 26 26 26 26 27 27 27 27 27 27 27 26 27
23 22 20 23 24 24 24 26 25 24 25 27 26 26 27 27 27 26 25 24 23 22 22 23 22 23 30 37 36 36 37 37 37 38 35 33 33 33 33 33 33 33 33 33 33 32 31 31 31 31 30 30 30 30 30 30 30 30 29 28 27 27 26 26 26 26 25 25 25 25 25 25 26 26 26 26 26 26 27 27 27 26 26 27 27 27
21 21 20 20 21 21 22 25 26 25 25 26 25 25 25 25 25 24 23 24 24 23 22 23 22 23 32 38 37 36 37 37 38 38 36 34 33 34 34 34 34 34 34 33 33 32 31 31 31 31 31 30 30 30 30 30 30 30 30 29 28 27 27 26 26 26 26 25 25 25 25 25 25 26 26 26 26 26 26 27 27 26 26 26 27 27
21 21 20 20 21 21 23 25 25 26 27 27 27 27 28 26 24 22 21 23 23 23 24 24 22 25 33 37 36 36 37 38 38 39 37 34 33 34 34 34 35 34 34 34 33 33 32 31 31 31 30 30 30 30 30 30 30 30 30 29 28 28 27 27 26 26 26 26 25 25 25 25 25 25 26 26 26 26 26 26 26 26 26 26 27 27
21 21 19 19 20 22 23 25 26 27 27 26 26 27 27 26 25 24 23 23 22 22 23 23 21 25 33 36 35 35 37 38 39 39 38 35 34 35 35 34 35 34 34 34 34 33 33 32 32 31 30 30 30 30 30 30 30 30 30 30 29 28 27 27 27 26 26 26 26 26 25 25 25 25 26 26 26 26 26 26 26 26 27 27 27 27
20 20 19 18 18 20 21 23 24 24 23 22 24 25 26 26 26 25 24 23 22 22 22 22 22 25 32 35 33 33 35 37 38 39 40 37 34 34 35 35 35 34 34 34 34 34 33 33 32 31 30 30 30 30 30 30 30 30 30 30 29 28 28 27 27 27 26 26 26 26 26 26 25 25 26 26 26 26 26 26 26 26 27 27 27 27
19 19 18 17 17 17 19 20 20 20 21 22 23 24 25 25 25 24 22 22 21 21 21 22 22 25 31 33 31 32 33 34 35 36 38 39 36 34 34 34 35 34 34 34 34 34 33 33 32 31 30 30 30 30 30 29 30 30 30 30 30 29 28 28 27 27 27 26 26 26 26 26 26 26 26 26 26 26 26 26 26 26 27 27 27 27
19 18 18 18 17 17 18 19 19 20 20 21 22 23 23 24 25 24 22 21 21 21 21 22 23 23 27 30 30 31 31 31 31 32 33 35 36 35 35 35 35 34 34 34 34 34 33 33 32 31 30 30 31 31 30 29 30 30 30 31 31 30 28 28 28 27 27 27 26 26 26 26 26 26 26 26 26 26 26 27 26 26 27 27 27 27
18 18 18 18 18 19 19 19 20 21 21 21 22 22 23 24 24 23 22 22 22 21 20 23 24 22 24 28 30 29 30 30 30 31 31 31 32 33 34 34 34 34 34 34 34 33 33 32 32 31 31 30 31 31 30 30 30 30 30 31 31 30 29 29 28 28 27 27 26 26 26 26 26 26 26 26 26 27 27 27 27 27 27 27 27 27
18 17 18 19 19 19 20 21 21 21 21 22 22 22 23 23 23 22 22 23 23 22 21 23 24 23 25 29 29 28 29 29 29 30 30 30 30 31 32 32 32 32 32 32 31 32 32 32 32 31 31 31 31 31 31 31 30 30 31 31 31 31 30 29 29 28 28 27 27 27 26 26 26 26 26 26 27 27 27 27 27 27 27 27 27 27
18 17 19 19 19 19 20 21 21 21 21 21 22 22 23 23 23 23 23 24 24 23 23 25 25 25 28 29 27 27 29 29 29 30 29 29 29 30 30 30 30 31 30 29 29 29 30 30 30 30 30 29 30 31 32 31 31 31 31 31 31 31 31 30 29 29 28 28 27 27 27 26 26 26 26 26 27 27 27 27 27 27 27 27 27 27
17 17 18 19 18 18 19 20 21 21 21 21 21 22 23 23 23 23 23 24 24 23 25 26 25 26 29 29 27 27 28 28 28 28 28 28 28 29 29 29 29 30 29 29 29 28 29 28 28 29 29 27 26 28 29 29 30 31 32 32 31 31 31 30 29 29 28 28 27 27 27 27 26 27 27 27 27 27 27 27 27 28 27 27 27 27
17 16 17 18 17 17 19 19 20 20 21 20 21 21 22 22 22 23 24 24 24 23 24 24 23 25 28 28 26 26 26 26 26 26 26 26 27 27 28 28 28 28 28 28 28 28 27 27 27 28 28 26 25 26 27 26 26 28 29 31 32 32 31 30 30 29 29 28 28 27 27 27 27 27 27 27 27 27 27 27 28 28 28 28 27 28
17 16 17 17 16 16 18 19 19 20 19 19 20 22 23 23 23 24 24 25 25 25 24 23 24 26 27 27 26 25 24 24 25 25 24 24 25 26 26 26 26 27 27 27 27 27 26 26 27 28 27 25 26 26 27 27 27 27 26 27 28 31 32 31 30 30 29 28 28 27 27 27 27 27 27 27 27 27 27 27 28 28 28 28 28 28
17 17 16 16 15 15 17 18 18 18 17 18 21 23 23 24 24 23 23 24 25 25 25 24 24 24 24 24 25 25 24 24 24 24 23 23 24 24 24 25 25 25 26 25 26 26 26 25 26 27 27 27 28 28 28 28 29 29 28 26 26 29 32 32 30 30 29 29 28 28 27 27 27 27 27 27 27 27 27 27 28 28 28 28 28 28
16 16 16 16 15 14 16 16 16 15 17 20 22 23 23 24 23 23 23 23 22 23 23 22 21 21 22 23 24 25 25 23 22 22 22 22 22 23 23 23 23 23 24 24 24 24 25 25 25 26 27 27 28 29 29 28 29 29 29 28 27 28 31 32 31 30 30 29 28 28 28 27 27 27 27 27 27 27 27 27 27 28 28 28 28 28
17 16 16 15 14 14 14 14 14 15 19 21 22 22 23 23 22 21 22 21 19 20 21 20 21 21 22 22 23 24 25 24 22 21 22 22 22 22 22 22 22 22 22 23 23 23 24 24 25 25 25 26 27 28 28 27 28 29 29 29 29 30 31 32 31 30 30 29 29 28 28 28 27 27 27 27 27 27 27 27 27 28 28 28 28 28
17 17 16 15 15 15 14 14 15 16 17 19 20 21 22 22 21 20 20 19 18 18 20 20 20 20 21 21 22 23 25 25 22 20 21 21 21 21 21 21 21 21 22 22 22 23 23 23 23 23 24 25 25 27 27 28 28 29 29 30 31 31 32 32 31 30 30 29 29 28 28 28 27 27 27 27 27 27 27 27 27 28 28 28 28 28
18 17 16 15 15 15 15 14 14 14 15 17 19 20 21 21 21 20 20 19 17 17 19 19 19 19 20 20 21 22 24 24 21 19 20 21 21 20 20 20 21 21 21 21 21 22 22 22 22 22 23 24 25 26 27 28 28 29 29 29 30 31 31 31 31 30 30 29 29 29 28 28 28 27 27 27 27 27 27 27 27 28 28 28 28 28
17 17 16 15 14 15 14 14 14 14 15 18 18 18 19 20 21 20 20 18 16 17 18 19 18 19 19 19 20 21 22 21 19 19 21 20 20 20 19 19 20 20 20 20 20 21 20 20 21 22 23 24 25 25 26 27 27 28 29 29 30 30 31 31 31 31 30 30 29 29 29 28 28 28 27 27 27 27 27 27 27 28 28 28 28 28
16 15 14 14 14 14 14 13 14 15 17 17 16 16 18 19 20 19 18 17 15 16 18 18 18 18 18 19 19 19 19 19 18 20 20 20 19 19 19 19 19 19 19 19 19 19 20 20 21 22 22 23 23 24 25 25 26 27 28 29 30 30 30 31 32 32 31 30 29 29 29 28 28 28 28 27 27 27 27 27 27 27 28 28 28 28
15 14 13 13 13 14 14 14 14 16 16 15 14 15 17 18 19 18 17 16 15 16 17 18 17 17 17 17 18 18 18 19 20 20 19 19 19 19 18 18 18 18 18 19 19 19 19 20 20 21 21 22 23 23 24 25 26 27 27 28 29 30 31 31 32 32 31 30 30 29 29 29 28 28 28 28 28 27 27 27 27 27 28 28 28 28
13 13 13 13 13 13 13 13 13 15 15 13 14 15 16 17 17 16 16 15 15 16 17 17 17 16 16 16 16 16 17 18 20 20 18 17 18 18 18 18 18 17 18 18 18 18 19 19 20 20 21 21 22 23 25 25 26 27 27 28 29 30 31 32 32 32 31 30 30 29 29 29 28 28 28 28 28 28 27 27 27 27 28 28 28 28
12 12 13 13 13 12 12 12 12 13 14 13 14 15 15 15 14 15 15 15 16 17 16 16 16 16 16 16 16 16 16 17 19 19 17 16 17 17 17 17 17 17 17 17 17 18 18 18 19 20 21 21 22 23 24 24 25 26 27 28 29 30 31 31 31 31 31 30 30 30 29 29 28 28 28 28 28 28 27 27 27 27 27 28 28 28
12 12 12 12 12 12 12 13 13 13 13 14 13 13 13 14 14 14 14 15 16 17 16 16 16 16 16 16 16 16 16 17 18 19 17 16 17 17 17 17 17 17 17 17 17 17 18 18 19 20 20 21 21 22 23 24 25 26 26 28 29 30 31 31 31 31 31 30 30 30 29 29 29 28 28 28 28 28 27 27 27 27 27 27 27 28
12 12 11 11 12 12 12 13 13 13 13 14 13 13 13 13 13 13 13 14 16 16 16 16 16 16 16 16 15 16 16 16 17 18 17 17 16 16 16 16 16 16 16 16 17 17 17 18 19 19 20 20 20 22 23 24 25 25 25 27 29 30 31 31 31 31 30 30 30 30 29 29 29 28 28 28 28 27 27 27 27 27 27 27 27 27
13 12 11 11 12 12 12 13 13 12 12 13 14 14 14 13 13 13 13 13 15 16 16 16 16 16 16 15 15 15 16 16 17 17 17 17 16 16 16 16 16 16 16 16 16 16 17 18 18 19 19 19 20 21 22 23 24 24 24 25 28 30 31 31 31 30 30 30 30 29 29 29 29 28 28 28 28 27 27 27 27 27 27 27 27 27
12 11 11 11 11 11 12 13 12 11 11 12 13 14 14 13 13 13 13 13 15 16 16 16 16 16 16 16 15 15 15 16 17 17 17 17 16 16 16 15 15 15 16 16 16 16 17 17 18 18 18 18 20 20 21 21 22 23 23 24 27 30 32 31 30 30 30 30 29 29 29 29 29 28 28 28 28 28 27 27 27 27 27 27 27 27
11 11 11 11 11 11 12 13 12 11 12 13 12 13 13 13 13 13 13 14 14 15 16 16 16 16 16 16 16 15 15 16 16 17 17 17 16 16 15 15 15 15 15 16 16 16 16 17 17 17 17 18 19 19 19 20 21 21 22 23 25 28 30 31 30 30 30 29 29 29 29 29 29 29 28 28 28 28 27 27 27 27 27 27 27 27
11 11 11 10 10 11 12 12 11 10 11 12 12 12 12 13 12 13 13 13 14 15 15 16 16 16 17 17 16 16 15 15 16 17 17 17 16 15 15 15 15 15 15 16 16 16 16 16 17 17 17 17 17 18 18 19 20 20 21 22 23 25 28 29 30 30 29 29 29 29 29 29 29 28 28 28 28 28 28 27 27 27 27 27 27 27
11 10 10 10 9 10 11 11 10 9 10 10 11 11 12 12 12 12 12 13 13 14 14 15 15 16 16 16 17 16 15 15 16 16 17 17 16 15 15 15 15 15 15 15 15 15 15 16 16 16 16 16 16 16 17 18 19 19 20 21 22 23 25 26 28 29 29 29 29 29 28 28 29 28 28 28 28 28 27 27 27 27 27 27 27 27
11 10 10 9 9 10 10 10 10 9 9 10 10 11 11 11 12 12 12 12 13 13 14 14 14 15 16 16 16 16 16 16 16 17 17 17 16 16 15 15 15 15 15 15 15 15 15 16 16 16 15 15 15 16 16 17 18 18 19 20 21 22 23 24 25 26 28 28 28 28 28 28 28 28 28 28 28 28 27 26 25 26 27 27 27 27
Height
746 760 766 765 764 758 754 753 754 753 752 751 751 751 752 753 747 732 723 709 704 729 743 741 750 758 758 757 752 753 755 760 770 773 768 767 768 768 770 771 771 772 772 770 772 775 778 781 784 788 792 795 799 802 805 808 811 813 815 818 821 824 826 827 829 831 833 835 837 838 840 841 842 844 845 846 847 848 849 850 851 852 853 853 855 856
748 765 765 756 753 749 747 747 748 751 752 751 753 754 752 751 746 729 718 708 700 725 743 737 747 756 754 754 750 750 756 760 764 768 767 767 768 768 769 770 770 770 769 769 771 773 776 779 782 786 789 792 796 799 803 806 809 812 814 816 819 822 824 826 828 830 831 833 835 836 838 840 841 843 845 845 846 847 848 850 850 851 852 853 854 855
760 765 758 747 744 744 744 743 745 749 750 753 753 755 758 749 742 730 714 704 702 722 741 739 747 755 748 746 746 746 752 756 755 757 762 764 766 768 768 768 769 769 769 768 769 770 773 776 780 784 787 790 793 797 801 804 807 810 812 815 817 820 823 825 827 828 830 832 834 836 837 839 841 842 844 845 845 846 848 849 850 850 851 853 854 855
767 760 748 741 740 742 746 743 744 748 748 751 752 757 759 746 745 744 723 708 705 715 733 738 747 754 750 749 748 745 746 748 749 751 755 758 761 763 764 764 766 768 769 768 767 767 769 773 777 781 784 787 791 795 798 801 805 808 810 813 815 818 821 823 826 828 830 832 834 836 837 839 840 842 843 845 846 846 847 848 849 850 851 852 853 854
759 746 735 737 739 741 746 745 744 751 752 749 747 752 755 744 742 742 727 716 712 713 720 735 760 765 755 757 755 746 744 745 745 749 754 756 756 758 760 762 763 764 765 766 766 765 766 769 773 777 781 785 788 791 795 798 801 805 807 810 813 816 819 821 824 827 829 831 834 835 837 839 840 842 843 844 845 846 847 848 849 850 850 851 852 853
749 736 729 736 740 739 745 746 743 748 754 752 743 740 743 740 737 734 729 727 734 737 724 732 775 784 757 754 755 747 747 749 745 748 754 755 755 757 760 761 761 761 762 762 762 762 763 766 770 774 778 781 785 788 792 796 799 803 806 808 811 814 817 820 822 825 828 830 832 833 835 837 838 840 841 842 843 845 846 847 848 849 850 851 852 853
739 730 728 735 738 738 743 746 740 739 752 756 740 728 731 734 734 734 734 739 750 752 730 724 761 783 767 755 750 744 747 749 746 747 750 752 754 756 756 757 758 759 759 760 759 758 760 763 766 770 774 778 782 786 790 794 797 801 804 806 809 812 815 818 821 823 826 827 830 831 832 834 836 837 839 840 842 843 845 846 847 848 849 850 851 852
733 731 732 733 735 738 743 745 737 733 749 753 731 723 729 731 733 733 734 744 746 740 733 724 735 767 778 760 742 740 748 751 749 748 747 747 750 752 752 752 752 754 755 756 756 755 756 759 762 766 770 774 779 783 787 791 795 798 802 805 807 810 813 816 819 821 823 825 827 829 830 832 834 835 837 839 841 842 844 845 846 847 848 849 850 851
729 733 735 733 737 740 738 735 728 728 742 740 723 721 725 726 730 728 731 741 739 740 750 737 728 758 775 755 739 742 752 757 754 748 746 744 745 746 747 747 746 748 749 750 752 752 752 755 758 762 766 771 776 780 784 787 792 795 799 803 806 808 811 813 816 819 821 823 825 827 829 830 832 834 836 838 839 841 842 843 845 846 847 848 849 850
729 727 729 733 738 736 730 724 719 725 734 727 720 722 721 722 725 726 734 739 740 752 761 744 734 756 766 750 745 751 755 755 748 741 739 739 739 740 741 742 743 744 745 747 748 748 749 751 755 760 764 769 773 776 781 785 789 793 796 801 803 805 808 810 813 816 818 821 823 825 827 828 830 832 834 836 838 839 841 842 843 844 845 846 847 849
729 721 722 729 732 726 722 719 715 718 722 719 721 728 729 729 728 730 733 736 752 766 758 741 734 748 761 752 743 744 739 734 734 735 736 735 736 736 736 738 739 740 742 744 745 745 746 749 752 757 761 766 770 774 778 782 785 789 793 797 800 803 806 808 810 813 816 819 821 822 824 826 828 830 832 834 836 837 839 840 841 842 843 844 846 847
732 729 727 722 719 717 719 721 717 713 715 720 728 735 743 745 741 745 744 746 771 779 755 736 730 742 761 751 733 725 716 713 721 726 729 732 733 732 732 733 734 736 738 740 743 743 744 748 750 754 758 762 767 771 774 778 781 785 789 793 797 801 803 806 808 810 813 816 818 820 822 824 826 828 830 831 833 835 836 838 839 840 841 843 844 845
739 733 728 722 717 714 723 731 728 721 720 728 735 741 757 766 765 772 770 766 778 774 748 735 734 744 750 735 721 719 712 710 713 713 716 721 725 727 727 729 729 731 734 735 739 741 742 745 747 750 754 758 763 766 770 774 777 781 785 789 793 796 800 803 806 808 811 813 815 817 819 821 823 825 827 829 831 833 834 836 838 838 839 841 842 844
751 736 725 728 724 714 723 738 743 737 730 734 739 746 762 775 784 791 785 779 780 768 745 734 740 748 743 722 707 707 706 705 706 705 707 708 712 718 719 722 725 727 730 732 734 737 739 741 744 746 750 754 758 762 766 770 773 777 781 785 788 792 796 799 802 805 808 810 812 814 816 818 820 822 824 826 828 830 832 834 835 837 837 839 840 841
774 762 739 737 735 722 722 729 734 734 732 732 728 737 754 762 775 785 780 780 781 768 750 742 747 751 743 721 696 689 692 693 697 699 701 704 706 710 714 717 722 724 726 728 730 732 734 736 740 743 746 750 754 758 762 766 769 773 777 780 784 788 793 796 799 802 805 807 810 812 814 816 817 819 821 823 825 827 830 832 833 835 836 837 838 839
779 772 744 736 734 726 727 723 718 727 738 732 723 738 752 746 751 762 761 759 761 765 758 748 744 733 720 706 686 680 684 684 690 694 697 705 706 709 715 716 717 719 720 723 726 728 730 732 735 739 742 746 750 754 758 762 765 768 772 776 780 784 789 793 796 798 801 804 807 809 811 813 815 817 819 821 823 825 827 829 830 832 834 835 836 838
786 774 745 739 735 725 730 727 718 727 739 735 733 743 740 726 733 752 758 746 749 770 764 742 737 725 715 711 693 685 687 683 685 690 694 702 705 710 714 712 713 715 714 716 719 722 725 728 732 735 738 742 746 750 753 757 760 763 768 772 777 782 786 789 792 795 797 800 804 806 808 810 812 814 816 818 820 822 824 826 828 829 831 833 835 836
790 781 751 745 747 731 725 727 719 714 722 737 745 736 723 723 729 743 761 760 761 777 763 738 738 735 732 729 706 693 696 688 683 686 692 699 704 709 710 707 708 709 710 712 713 717 720 723 728 731 735 738 741 745 748 752 757 760 765 769 773 778 781 785 789 792 795 798 800 803 805 807 809 811 813 815 817 819 821 823 825 827 829 830 832 834
785 789 763 745 752 741 727 733 733 718 710 723 733 724 728 750 753 748 762 771 774 780 764 742 736 731 731 727 709 701 701 693 684 683 691 698 701 705 705 703 704 704 707 710 712 715 717 719 724 726 731 735 737 741 745 750 754 757 761 764 768 772 776 781 786 789 793 795 797 799 801 803 805 807 810 812 814 816 818 819 821 823 825 827 829 831
780 795 781 750 749 751 741 743 751 746 729 722 726 725 731 747 753 750 752 756 767 777 770 756 745 731 718 707 701 699 692 688 684 681 688 693 694 697 699 699 701 703 706 708 709 713 714 715 719 722 726 731 734 739 742 747 751 753 757 761 764 768 772 777 781 785 789 792 794 796 798 800 802 804 807 809 811 813 814 816 818 820 822 824 826 827
779 792 793 767 756 763 760 751 754 763 758 748 747 748 744 741 740 744 745 742 751 767 769 766 760 736 703 685 688 691 682 678 677 676 681 686 687 690 693 695 699 700 702 704 706 709 711 713 716 719 723 727 731 736 739 743 747 750 754 757 760 764 768 772 776 780 784 787 790 793 795 797 799 801 804 806 808 809 811 813 815 816 819 820 822 824
791 796 801 790 779 778 769 753 750 760 761 758 759 758 755 751 749 757 759 743 737 750 756 761 764 736 694 678 681 682 678 672 669 670 676 681 684 687 689 691 694 696 699 701 703 705 708 710 713 716 721 725 729 733 736 739 742 745 749 753 756 759 762 766 771 775 779 783 787 789 791 794 796 798 800 802 804 806 807 809 811 813 815 817 819 821
794 797 803 801 790 781 767 750 750 755 753 752 754 751 749 751 756 767 771 754 743 743 737 744 759 733 688 676 678 673 669 665 663 665 669 676 679 681 685 687 687 690 693 695 697 700 703 706 709 713 717 721 724 728 732 736 738 741 744 748 752 754 757 761 766 770 775 779 782 786 789 791 793 795 797 799 801 802 804 806 808 810 812 814 816 818
793 797 807 808 793 777 763 749 745 749 753 757 756 750 751 755 758 761 763 760 758 755 744 747 759 733 688 677 679 672 664 660 660 661 665 674 677 676 680 682 683 686 687 690 693 695 699 703 706 710 713 716 720 723 727 731 734 738 740 744 748 750 753 757 762 766 771 774 778 782 785 788 790 792 794 795 797 798 801 803 805 807 809 811 813 814
804 806 813 820 813 799 782 766 761 763 770 774 768 760 757 756 757 757 757 760 764 765 762 759 754 728 695 684 685 681 673 666 663 658 659 670 679 681 681 680 681 683 683 686 689 691 696 700 703 706 708 711 715 718 722 726 730 733 736 739 742 746 751 754 758 762 766 770 774 777 780 783 786 788 789 791 794 795 798 800 802 804 806 808 810 811
810 812 815 825 831 826 811 796 792 791 788 782 774 767 762 761 764 766 768 775 776 771 770 766 754 731 709 698 695 692 687 682 677 669 663 666 674 681 684 683 682 684 684 685 686 689 692 695 698 702 704 707 711 714 718 722 725 729 732 735 738 742 746 750 754 758 761 765 769 772 776 778 781 783 785 788 790 792 795 797 798 801 802 804 806 808
810 813 814 820 825 824 817 806 797 795 794 788 779 774 770 767 766 768 775 783 781 775 771 763 755 746 732 718 710 704 700 697 692 687 682 678 676 677 679 677 678 682 684 683 683 686 689 692 695 697 700 703 706 710 714 718 721 725 729 732 734 737 741 746 750 754 757 761 764 768 770 773 776 778 781 783 786 789 791 793 795 797 799 801 803 805
813 817 814 814 813 809 807 800 792 790 792 788 781 778 775 770 768 772 778 777 774 781 780 760 751 756 747 729 721 715 708 705 701 697 695 691 686 682 676 672 674 679 682 683 685 686 688 690 692 694 696 699 703 707 711 714 718 721 724 728 731 733 736 740 745 749 753 756 759 762 765 768 771 774 777 780 782 785 787 789 791 793 795 798 799 801
813 818 811 809 808 802 798 794 789 788 787 782 780 779 776 773 773 775 776 771 768 778 779 760 753 758 746 730 727 720 711 708 706 703 699 694 692 689 682 681 686 689 691 694 695 692 692 693 693 694 695 696 699 703 707 712 716 719 723 725 727 730 732 736 740 744 748 751 754 757 761 764 768 771 774 777 779 781 783 785 787 789 792 794 796 798
812 816 809 807 808 802 797 793 788 786 786 782 779 778 777 775 773 772 772 768 764 765 762 753 752 751 737 729 730 723 710 705 705 703 700 697 698 698 695 695 698 699 700 702 701 699 700 702 702 701 701 701 702 704 707 710 714 717 719 722 724 727 729 732 736 740 744 747 749 754 758 761 765 768 770 773 775 777 779 781 784 786 788 790 792 794
815 818 809 807 812 808 800 794 790 788 788 784 778 776 776 775 773 771 768 765 763 760 754 750 753 747 731 725 728 722 710 706 709 711 708 704 704 704 703 704 704 703 704 705 704 704 706 709 709 707 707 708 709 710 712 715 717 717 718 719 722 724 726 730 733 736 740 743 746 751 755 758 761 764 766 769 771 773 776 778 780 782 784 786 788 790
817 820 813 812 819 816 803 798 795 789 786 785 780 776 775 776 775 770 764 761 761 760 758 758 758 749 732 725 727 724 717 714 717 720 718 714 711 710 710 710 710 709 709 710 709 708 709 713 713 710 710 711 711 713 715 718 721 722 723 722 721 722 726 728 730 733 737 740 744 747 750 753 757 760 762 765 767 770 772 775 777 778 780 782 784 786
815 818 817 819 824 819 807 801 797 793 795 794 782 771 770 771 770 766 760 756 755 755 760 762 755 743 733 729 730 732 730 727 725 727 728 724 720 718 717 716 716 715 714 715 714 713 715 718 717 712 711 712 712 712 714 716 719 724 728 730 727 725 725 727 728 731 734 737 740 743 746 749 752 755 758 760 763 766 769 771 773 775 776 778 780 782
813 816 819 821 825 824 813 804 802 809 813 799 774 762 763 762 762 764 761 756 752 749 752 756 753 748 744 739 736 736 735 732 730 731 732 731 729 726 723 721 721 720 718 718 718 717 721 725 722 716 712 712 712 712 712 714 717 721 727 733 733 730 725 725 726 728 730 734 736 739 743 746 748 750 753 756 759 762 765 767 769 771 773 775 777 779
814 818 821 822 826 827 820 817 823 824 811 786 767 761 760 757 758 762 761 758 758 756 756 761 761 757 753 747 740 735 734 732 731 732 734 736 736 733 730 728 726 725 723 722 722 721 722 725 723 718 714 713 713 714 714 715 718 722 725 728 731 729 724 722 724 725 727 730 732 735 738 741 743 747 749 752 756 758 760 763 765 767 770 771 773 775
812 817 820 823 827 828 827 829 830 818 793 777 771 765 761 761 763 766 767 766 767 765 764 765 762 756 754 750 742 737 734 731 732 735 738 740 740 738 737 734 731 730 728 727 725 724 722 722 722 721 719 716 714 715 717 718 720 724 725 724 725 724 721 720 720 721 723 725 727 730 733 736 739 743 745 749 751 753 755 758 760 763 766 768 770 771
806 812 816 822 824 824 827 827 821 812 800 788 780 770 764 766 768 772 776 775 772 769 766 765 762 759 756 752 746 740 733 731 739 743 741 741 743 743 742 739 736 733 731 729 727 726 724 723 722 722 722 719 717 716 717 719 720 720 721 720 719 718 716 715 715 716 718 720 722 725 728 731 735 738 741 744 746 748 750 753 756 759 762 764 766 767
803 808 813 820 820 818 823 825 823 824 815 795 780 772 767 765 763 765 773 777 775 772 768 765 765 763 760 755 750 742 734 738 751 754 747 745 745 744 743 742 739 736 732 730 729 726 725 724 722 721 720 718 717 717 716 717 717 716 715 715 715 715 713 711 711 712 713 714 717 720 723 727 730 734 737 739 741 743 746 749 752 755 757 760 762 763
805 806 810 818 820 819 823 826 825 821 808 790 781 777 771 767 762 763 773 781 780 775 770 768 768 766 763 760 755 749 748 757 764 758 750 748 747 744 743 742 740 739 736 733 731 729 727 725 723 721 719 716 716 716 715 715 715 714 711 710 710 712 711 708 706 707 708 710 714 717 720 723 726 729 732 734 736 739 742 744 747 750 754 756 758 760
809 812 816 820 821 820 822 823 818 807 795 790 789 784 776 768 765 773 785 786 781 776 772 770 769 767 765 762 759 758 762 768 766 757 750 750 749 746 745 744 742 740 738 735 733 731 729 726 724 722 720 718 716 715 714 713 713 712 711 708 707 707 706 705 703 703 705 709 712 715 717 719 722 724 727 730 733 736 739 741 744 747 750 752 755 757
813 817 821 822 821 818 817 818 812 801 794 795 794 787 778 771 774 785 790 782 777 776 772 770 771 770 767 766 765 765 765 763 759 754 752 751 750 748 748 746 744 742 740 738 735 732 729 727 726 724 722 720 717 715 713 712 711 709 708 707 705 702 701 701 701 702 704 706 708 711 713 715 717 720 723 727 730 734 736 738 740 743 745 748 751 754
820 820 818 818 820 818 816 817 814 804 797 798 794 785 780 782 787 789 784 777 775 774 770 770 771 770 769 768 767 768 766 760 755 754 754 754 753 751 750 748 746 744 741 739 736 733 731 728 725 723 720 718 717 715 713 712 709 706 704 703 701 698 697 698 699 700 700 701 704 707 709 711 714 717 720 724 727 730 733 735 737 740 742 745 747 749
827 826 820 817 818 819 819 819 818 810 801 798 797 792 789 794 794 787 781 778 774 770 770 771 770 768 769 769 767 767 765 761 757 755 755 756 755 754 752 750 748 746 742 738 735 732 731 728 725 722 719 717 716 714 712 711 708 703 700 698 695 693 693 694 695 696 696 697 700 703 705 708 710 713 716 720 723 726 729 732 735 737 739 741 744 746
824 826 826 823 821 823 821 814 809 805 800 799 801 800 797 796 792 787 784 780 774 771 771 771 769 768 769 768 768 767 765 762 759 756 756 757 756 755 753 751 749 748 744 740 736 733 731 728 725 721 718 716 714 712 711 709 705 701 697 693 689 688 689 690 691 691 692 693 695 698 701 704 707 710 713 716 719 723 726 729 731 734 736 738 740 742
820 821 825 824 821 820 816 806 801 801 800 798 798 797 795 793 790 788 787 784 778 773 771 769 769 769 768 768 769 768 766 764 761 758 758 758 757 756 754 751 749 747 746 743 739 736 733 729 725 722 718 715 713 711 708 706 703 699 694 688 685 684 684 685 686 687 687 689 690 693 697 700 703 706 709 713 716 719 722 725 728 730 732 735 737 739
816 818 821 822 819 815 809 803 801 803 801 799 796 793 792 792 789 787 788 786 780 775 771 770 768 766 766 768 769 768 767 765 761 759 758 758 757 756 754 752 749 747 745 744 741 738 734 730 726 722 718 714 712 709 707 704 701 697 692 686 681 680 679 680 681 682 683 684 686 689 693 697 700 704 707 710 713 715 719 722 724 726 729 731 733 735
818 820 821 821 819 817 810 802 802 805 802 798 795 793 791 791 790 788 788 786 781 775 772 770 767 764 764 765 766 767 767 765 763 761 758 757 756 755 753 753 751 749 747 744 741 739 735 731 727 723 719 715 712 709 706 704 700 696 691 685 679 676 675 675 676 678 678 680 683 686 689 693 697 701 704 708 710 713 716 718 721 724 726 727 729 731
819 821 822 820 819 816 809 801 802 804 799 794 795 795 793 792 790 788 786 784 780 776 773 770 767 764 761 760 761 763 763 763 763 761 758 757 756 753 752 752 752 752 750 745 741 738 735 732 728 725 721 717 713 710 707 704 699 695 690 684 679 675 673 672 672 674 675 677 680 683 686 690 694 698 702 705 707 710 713 715 718 720 721 722 725 727
818 820 820 820 819 813 806 803 806 805 798 794 795 795 793 792 791 789 786 784 780 777 773 770 767 764 761 759 758 758 758 758 758 757 756 756 755 754 753 751 750 751 751 748 743 738 735 732 730 727 724 721 717 713 708 704 699 695 690 685 681 676 673 671 670 671 673 675 677 680 684 688 691 695 699 702 705 708 711 713 716 717 718 720 722 723
818 820 819 821 821 815 808 808 810 809 805 800 797 795 793 792 790 788 786 784 780 777 773 771 768 764 761 759 757 757 756 755 753 752 752 752 752 753 753 752 751 750 749 747 744 739 734 732 730 728 726 723 720 716 711 705 700 696 691 686 682 678 675 673 671 671 671 673 676 678 681 685 689 693 697 700 704 707 709 710 712 714 716 718 719 721
814 816 817 820 820 814 810 809 809 810 807 802 797 796 794 791 790 788 786 783 780 777 773 771 769 765 762 760 758 757 756 754 753 751 750 750 750 750 750 750 749 748 746 745 743 739 735 733 732 729 727 725 721 718 713 708 702 697 692 687 683 679 677 674 673 672 672 672 674 676 679 683 688 692 696 698 701 702 704 707 710 711 713 715 717 719
Wind_Speed
5 3 4 5 6 7 9 10 11 10 10 12 10 7 7 6 7 8 11 12 10 13 11 13 12 13 14 13 13 13 13 12 8 8 9 10 8 7 9 8 9 12 12 15 21 25 25 28 31 28 30 34 32 34 37 32 32 35 33 35 35 31 29 30 30 28 27 25 24 25 24 23 22 19 21 23 21 21 19 17 15 14 13 12 12 11
6 5 5 7 9 9 9 10 11 12 12 12 9 8 8 7 8 9 12 11 9 12 10 13 12 13 15 15 15 14 12 11 12 13 11 11 9 6 8 7 6 7 9 14 18 22 25 27 31 28 30 34 32 34 38 33 33 35 33 36 36 32 31 32 31 30 29 27 25 25 24 25 21 17 21 25 23 22 20 17 16 15 14 12 12 11
5 5 7 9 9 10 10 10 11 12 12 10 7 6 6 6 8 10 11 9 8 9 10 15 13 10 13 17 18 17 14 11 13 14 12 12 10 8 8 8 8 5 6 11 15 19 24 27 30 28 29 34 33 35 37 35 35 34 33 37 37 34 33 33 32 30 30 28 26 24 23 25 21 15 20 22 22 24 21 19 17 15 15 14 13 12
4 5 10 11 10 10 11 11 11 10 8 7 6 5 6 7 8 7 7 6 4 6 13 15 10 8 10 12 13 14 15 13 13 14 12 12 12 11 11 9 10 9 7 9 13 16 21 26 28 27 29 32 32 35 36 36 36 34 34 37 38 36 34 34 33 30 31 29 26 24 22 23 20 16 19 18 19 24 22 20 18 16 16 16 15 15
7 7 11 13 12 11 11 11 10 7 5 6 7 7 6 9 11 9 7 7 6 4 15 15 6 4 8 12 12 11 13 12 13 15 13 12 12 11 11 9 9 11 10 9 12 15 17 22 25 26 30 31 31 35 36 37 37 34 35 39 39 37 35 36 35 30 30 30 26 24 22 22 20 18 19 17 18 25 24 21 20 17 17 16 16 16
9 10 10 11 12 12 11 9 8 7 5 5 8 9 9 12 14 13 11 9 6 2 11 15 6 3 8 13 13 11 12 12 11 14 15 14 12 11 11 11 10 11 11 10 12 15 16 21 24 26 30 30 31 35 37 37 37 35 36 39 39 38 36 37 37 32 30 31 28 27 26 24 24 23 23 21 21 26 25 22 20 18 17 17 16 16
6 9 10 11 10 12 11 9 8 8 5 4 6 8 11 12 14 14 12 7 4 4 6 11 7 4 7 11 14 15 16 15 12 12 15 14 13 13 12 12 12 12 12 11 12 15 16 20 23 24 29 31 30 34 37 36 36 36 36 39 39 39 38 36 38 35 31 33 31 29 29 26 26 28 27 25 24 24 23 21 19 18 18 18 18 16
5 7 9 11 10 8 8 7 8 9 6 4 6 9 10 11 13 14 10 6 4 5 5 6 3 4 6 9 14 17 17 15 14 13 14 15 15 16 14 14 15 14 14 12 11 14 16 19 23 25 30 32 31 34 37 36 36 36 37 38 38 39 39 37 38 37 34 34 34 31 30 26 26 28 29 26 24 23 22 21 20 19 18 18 20 19
7 7 6 8 9 6 5 6 8 10 8 5 7 11 9 8 11 12 8 5 4 5 6 7 3 1 5 8 11 15 16 14 15 16 16 17 18 18 16 16 16 14 14 14 13 13 15 20 25 28 31 32 32 34 37 37 36 37 38 38 37 38 39 38 39 39 36 35 35 33 31 27 24 25 28 27 24 22 22 21 21 21 19 18 21 21
8 6 4 6 7 5 6 7 7 9 7 6 9 11 10 7 6 6 5 3 2 4 7 7 4 2 3 7 10 10 13 15 16 17 17 18 19 19 17 16 16 14 13 14 14 12 15 22 28 30 32 33 33 34 37 38 36 36 39 39 37 37 39 39 40 40 38 36 36 35 33 30 25 23 27 28 24 22 21 20 21 22 21 18 19 21
9 11 8 6 6 6 7 8 8 7 6 5 8 8 8 7 5 3 3 2 1 3 7 8 6 4 3 6 11 12 15 18 16 15 16 18 19 19 17 17 16 14 13 13 14 13 15 23 28 30 32 33 33 33 37 38 37 37 39 40 39 37 37 38 40 41 39 37 36 37 36 33 29 24 27 30 26 24 22 21 22 23 22 19 18 20
9 10 7 5 7 7 6 6 6 7 7 5 4 4 4 4 4 3 3 4 1 3 5 7 7 6 5 4 10 15 19 22 19 17 18 20 20 19 17 17 17 15 14 14 14 14 14 16 21 27 31 33 32 32 35 38 38 38 39 40 39 37 37 37 39 41 40 38 37 38 38 36 34 29 29 32 30 27 23 22 23 22 23 22 19 19
7 8 6 6 8 7 5 5 4 5 6 6 5 4 3 2 2 2 1 1 2 4 5 7 7 5 5 4 8 13 16 18 18 18 21 22 22 20 18 18 17 15 14 14 13 13 15 13 14 21 28 31 32 32 35 38 38 38 38 41 40 39 39 38 38 40 40 40 39 39 39 38 36 34 31 32 32 31 27 23 24 23 23 25 23 21
3 6 6 5 5 3 3 4 3 2 4 5 4 3 3 2 3 3 1 2 3 4 6 8 8 4 3 5 6 10 13 18 19 18 20 24 23 22 21 19 17 16 15 14 12 12 14 14 14 20 26 30 32 32 35 37 37 37 37 40 42 41 41 39 38 40 40 40 40 40 40 39 37 37 35 33 33 33 31 28 26 25 24 26 26 23
5 4 2 3 4 3 4 6 5 4 4 3 1 1 2 2 2 3 2 4 4 4 6 8 7 2 3 5 8 7 8 15 19 19 18 20 21 20 19 19 18 17 15 14 15 14 15 16 18 21 25 29 32 33 34 36 37 37 37 40 42 41 40 39 38 40 40 40 40 40 40 40 38 38 37 35 34 33 33 32 30 28 27 27 26 24
6 5 5 10 11 9 6 4 6 6 4 2 3 3 4 4 2 3 3 3 4 3 4 6 5 3 5 6 9 11 9 8 15 20 20 18 18 17 17 19 19 18 17 16 16 15 15 17 20 23 25 28 32 33 33 35 37 38 38 40 42 41 41 40 39 40 42 41 40 40 40 40 39 38 37 36 35 34 34 33 33 32 31 30 28 26
5 6 8 13 14 11 10 12 8 7 4 2 3 6 6 6 4 2 4 6 4 3 3 4 5 4 4 5 8 11 13 9 8 16 23 21 19 18 17 19 19 18 18 17 16 17 16 16 19 23 26 28 31 33 34 36 38 38 38 39 40 40 40 41 40 40 42 41 40 40 40 40 39 38 38 37 36 35 33 33 34 33 32 32 31 29
5 8 9 9 13 14 14 18 14 6 9 3 3 4 4 4 3 1 1 4 3 3 3 5 6 4 5 5 7 10 11 11 10 10 21 23 20 20 18 19 21 20 19 18 17 18 17 16 19 23 26 30 33 36 36 36 37 37 38 39 40 40 40 41 40 39 40 40 40 40 40 41 40 40 39 39 38 36 34 33 34 33 33 32 32 31
5 7 9 5 9 15 15 13 13 5 9 8 5 5 1 0 3 3 2 2 2 3 3 5 7 4 6 5 9 13 11 10 12 9 19 24 21 20 19 20 23 20 18 17 16 16 16 16 19 24 26 29 33 36 36 35 35 36 37 39 41 42 42 41 40 38 38 40 40 40 41 42 41 41 40 39 38 37 35 34 34 34 34 33 32 31
3 2 7 6 9 14 12 4 4 7 3 6 6 6 3 1 3 3 2 2 2 2 2 4 6 4 5 6 11 16 15 13 14 10 17 25 23 21 20 19 20 18 16 15 15 15 16 16 20 27 29 30 32 33 34 33 34 35 36 38 41 41 41 41 40 39 39 40 39 38 40 41 41 41 40 39 38 38 37 36 35 35 34 34 33 32
3 1 5 9 11 10 7 3 5 10 9 7 6 5 4 3 3 3 3 3 3 3 2 2 4 5 5 5 8 13 15 15 14 9 12 22 24 21 19 17 16 16 15 15 14 14 15 16 20 26 29 31 32 32 33 33 33 34 35 37 39 40 40 40 40 39 39 39 40 39 39 40 41 41 40 39 39 39 39 37 36 35 35 35 34 33
4 2 4 8 8 7 9 11 12 12 10 9 7 6 5 4 4 5 4 3 3 4 3 2 4 6 5 2 2 5 11 14 12 7 9 19 23 20 18 18 18 16 15 15 15 15 15 15 18 24 27 28 30 31 32 32 32 33 35 36 38 40 41 41 41 40 39 38 39 40 40 40 40 41 40 39 39 39 39 38 37 36 35 35 36 35
5 2 3 7 7 9 16 19 17 13 11 10 8 6 5 4 5 5 4 3 3 3 5 4 3 7 6 4 9 10 8 14 12 6 9 19 24 21 19 20 19 18 18 18 17 16 15 15 18 23 26 27 29 31 32 32 32 33 34 35 37 39 40 41 40 40 39 39 39 39 39 39 40 40 40 39 39 39 39 39 38 37 36 36 36 37
6 2 2 6 7 9 15 17 14 9 8 7 6 6 5 6 7 6 3 3 3 3 3 4 5 7 8 5 10 13 4 11 11 7 8 13 18 20 21 22 20 18 18 18 17 15 14 15 17 19 21 24 27 30 33 34 33 32 32 34 35 37 38 39 39 39 38 38 39 39 39 39 40 40 40 40 39 39 39 39 38 37 37 36 36 37
4 2 4 4 6 7 9 10 7 7 10 7 7 10 10 10 13 9 3 4 2 5 9 2 5 5 7 8 12 16 12 2 4 7 9 8 11 13 13 15 17 17 19 20 18 16 16 16 15 15 17 22 26 29 32 34 34 33 33 34 34 35 37 37 37 38 38 38 38 39 39 40 40 40 40 40 39 39 38 37 37 37 37 37 36 36
2 2 3 2 3 4 5 5 4 6 8 7 9 14 15 14 16 10 5 4 2 5 9 4 3 5 10 13 14 17 18 15 12 8 2 2 7 11 10 11 12 12 16 20 19 17 18 17 16 15 17 22 26 28 30 32 34 34 34 34 34 34 36 37 37 37 37 38 39 39 40 41 41 41 41 41 39 38 38 37 37 37 37 37 36 36
1 2 3 3 4 6 7 9 10 10 10 10 14 17 15 14 13 8 4 3 4 7 5 3 5 11 14 15 13 15 17 16 17 19 15 10 5 5 9 12 15 14 15 18 18 17 17 16 17 18 18 22 26 28 30 32 33 33 34 34 34 35 36 36 36 37 37 37 39 39 40 41 42 42 42 42 40 39 38 37 37 37 37 37 37 36
1 2 5 7 9 10 11 15 17 15 13 15 17 16 15 14 13 10 6 5 7 7 4 6 11 12 13 15 11 12 14 13 14 17 16 15 14 10 8 8 8 14 15 14 14 16 18 18 19 19 18 22 26 27 28 31 33 34 35 35 34 35 37 37 37 37 37 37 38 39 41 42 42 42 42 42 41 39 38 38 37 37 37 37 38 37
2 3 5 9 12 12 13 14 16 15 13 15 16 16 16 14 12 10 9 8 8 5 5 10 13 11 12 13 9 10 11 11 12 13 14 15 16 15 19 23 17 9 8 7 6 3 6 11 13 15 17 21 26 28 28 28 30 32 33 35 35 35 35 37 38 38 37 37 38 39 40 41 41 41 40 41 41 40 39 39 38 37 37 38 38 37
1 3 6 8 10 12 13 13 14 14 14 15 16 15 14 15 13 11 10 10 11 10 9 11 12 10 10 6 5 7 8 11 11 12 14 17 17 16 18 20 18 17 16 15 16 16 12 6 3 1 3 7 12 18 23 26 30 33 34 34 35 35 36 37 37 37 37 37 38 39 38 39 40 40 39 40 41 40 40 39 38 37 37 38 39 38
2 3 7 7 7 9 12 12 12 13 14 16 17 15 13 14 14 13 11 9 11 11 9 10 10 8 5 3 4 5 8 13 15 15 16 16 16 16 17 17 16 16 16 15 15 17 15 11 8 8 8 7 7 5 1 4 12 24 32 34 34 34 34 36 37 37 37 37 37 37 37 38 39 39 39 40 41 40 39 39 39 38 38 39 39 39
2 2 6 5 5 7 10 12 13 14 15 16 16 15 12 11 11 11 10 7 9 10 10 10 8 5 4 5 6 9 12 14 16 17 16 14 16 17 16 17 16 15 15 15 14 16 15 12 8 7 8 7 9 11 10 11 10 9 15 23 32 35 33 33 36 37 36 36 37 37 38 39 39 39 39 39 40 41 40 39 39 38 37 38 40 40
2 2 3 3 5 6 9 13 13 13 12 10 10 11 11 10 10 12 12 10 11 10 8 7 7 6 7 7 9 12 13 12 14 16 14 13 15 15 16 17 16 15 15 14 14 15 14 11 10 8 8 8 9 10 9 8 5 4 14 17 17 27 32 31 33 36 35 35 37 38 38 39 40 40 40 39 40 41 40 38 38 38 38 38 39 40
1 1 1 3 4 6 10 13 11 9 7 6 7 9 10 10 9 9 10 9 9 9 6 6 8 11 11 8 9 9 8 9 13 15 15 14 14 13 16 17 16 16 15 14 14 14 11 9 11 12 11 10 9 7 6 4 8 17 20 17 17 22 30 30 30 34 35 35 37 39 38 39 40 40 40 40 39 40 40 39 38 38 37 37 38 39
0 0 1 1 2 3 7 9 8 7 6 7 11 12 13 14 11 8 7 8 8 7 7 9 10 9 9 9 8 7 6 10 14 16 17 16 14 14 15 16 16 17 16 15 14 14 11 9 11 16 17 17 15 9 4 3 12 22 26 24 24 28 31 30 29 32 35 35 37 39 39 39 40 40 39 39 39 39 40 40 39 38 36 35 36 38
3 2 2 1 1 1 2 4 6 7 8 11 13 12 12 11 8 7 5 6 12 12 9 9 9 8 10 11 10 8 5 6 10 13 16 16 15 15 14 14 16 16 14 14 14 13 14 15 15 17 19 21 21 14 8 6 11 21 27 31 33 34 33 32 30 32 35 36 38 40 41 40 39 39 39 39 38 38 40 40 39 38 37 35 35 37
4 3 2 2 2 2 2 4 5 7 12 12 11 9 8 5 5 4 3 2 10 12 9 8 9 10 11 11 11 11 8 2 7 9 14 16 15 14 14 14 15 16 15 16 17 17 19 21 21 22 20 20 22 20 16 16 16 16 18 22 27 31 33 33 31 32 35 37 38 40 41 40 40 39 39 39 38 38 39 40 40 39 37 35 33 34
1 2 2 2 3 2 2 4 3 5 8 8 6 7 9 8 6 4 3 1 6 11 10 9 9 10 10 10 12 12 7 2 5 6 10 14 14 13 13 13 14 17 18 20 21 22 23 24 24 25 23 20 20 21 21 21 22 22 20 18 17 21 28 32 31 32 34 37 39 40 40 40 40 39 39 39 39 39 38 39 40 39 38 36 34 33
1 0 2 2 2 2 2 4 3 5 6 4 5 9 11 11 11 8 4 2 3 8 9 9 9 9 9 10 11 10 6 5 4 5 7 11 12 13 13 13 14 17 20 22 22 22 24 26 25 24 24 22 21 22 24 24 23 22 22 22 19 17 22 29 33 33 34 36 38 38 39 39 40 40 40 40 40 39 38 39 39 39 38 37 35 33
1 1 1 3 4 4 5 5 4 5 3 4 8 11 13 12 11 8 4 2 3 7 7 8 9 9 9 9 8 8 7 5 4 5 8 11 11 12 13 14 15 17 20 22 24 24 25 25 23 22 22 22 24 26 27 27 25 22 22 24 23 20 21 29 36 35 33 33 35 37 38 39 40 40 40 40 40 38 37 37 37 38 38 37 36 33
2 1 2 3 4 6 7 6 5 5 2 6 11 14 14 11 6 3 3 2 2 5 5 6 7 8 9 8 7 5 5 5 5 5 9 11 11 11 13 17 19 19 21 22 25 26 25 23 23 23 22 23 25 26 26 26 25 24 23 23 23 24 26 31 36 35 31 32 34 36 38 38 39 40 39 38 37 36 36 36 36 37 38 37 36 34
2 1 1 2 2 3 4 3 5 4 1 7 12 13 10 6 3 3 3 4 4 4 4 5 5 6 6 7 6 5 7 8 7 7 9 10 11 10 11 16 19 20 21 23 25 25 25 24 24 24 24 25 25 25 25 25 25 27 26 24 24 29 31 31 33 34 32 33 35 35 36 37 37 38 37 36 36 36 35 36 36 36 37 37 36 35
0 1 2 1 1 1 2 3 4 3 1 7 11 9 5 3 4 5 5 6 7 6 4 4 4 5 4 5 5 6 8 10 8 6 8 8 9 9 10 13 15 17 21 24 24 25 25 23 23 24 25 26 25 25 26 25 26 28 26 26 30 34 32 28 30 34 33 33 35 35 35 36 37 37 36 35 36 36 35 35 35 35 36 36 35 35
2 2 1 1 0 1 2 2 2 2 2 5 5 3 3 4 6 8 8 7 7 6 4 3 4 5 4 5 5 6 8 10 10 7 7 6 8 8 9 12 14 17 21 23 24 27 26 24 23 25 26 26 26 27 27 26 25 25 25 28 34 35 30 26 30 35 34 33 35 35 35 36 36 37 36 35 36 36 34 34 34 34 35 36 35 33
2 2 1 2 2 2 4 5 4 5 5 5 3 4 5 6 6 7 9 9 7 6 5 5 5 4 4 5 5 5 5 8 10 7 6 5 7 7 8 12 15 17 20 21 24 27 26 24 25 25 26 27 28 28 28 26 24 23 25 31 33 32 29 27 30 34 34 34 35 35 35 35 35 35 35 35 35 35 34 34 33 33 33 34 34 33
2 3 1 2 3 4 6 7 4 5 6 7 7 4 2 4 4 6 8 9 8 7 6 7 7 6 5 4 4 4 4 6 8 7 4 4 5 6 8 11 15 19 21 22 25 27 26 24 24 25 26 28 29 27 27 27 25 23 28 34 32 29 29 28 31 35 34 34 35 35 35 34 33 34 35 35 35 34 34 33 33 32 32 32 33 33
3 3 1 4 4 4 5 3 3 6 8 8 7 4 2 3 5 5 5 8 9 9 8 9 10 9 7 5 4 4 4 6 7 6 4 3 4 6 7 9 13 18 20 22 24 26 25 23 22 23 26 28 28 27 28 28 26 25 30 33 28 24 29 29 31 34 34 33 33 33 34 33 32 31 32 33 33 32 33 34 33 32 31 32 32 31
2 2 2 3 3 5 7 4 7 10 10 5 4 5 5 6 7 8 8 9 10 10 10 9 10 10 8 7 5 5 6 6 6 6 4 1 2 5 6 8 13 16 18 23 26 26 25 23 22 23 25 25 27 29 30 28 27 28 30 31 26 16 24 32 33 32 32 33 33 32 33 32 32 31 30 31 31 30 30 32 33 32 33 34 34 32
1 2 3 3 4 7 7 5 9 10 8 5 6 9 8 8 9 9 10 11 12 11 10 10 10 10 10 9 7 6 7 7 6 7 5 1 2 2 5 10 15 16 16 19 24 26 26 24 22 23 25 26 28 30 30 29 29 30 30 29 26 18 11 22 31 32 31 30 30 30 31 31 30 30 29 29 30 30 29 30 32 32 32 34 37 37
2 3 2 2 4 5 4 5 7 7 7 7 9 11 11 11 11 10 10 11 12 11 10 11 12 12 11 11 9 6 7 8 8 8 7 3 2 2 4 9 14 16 17 18 20 24 27 25 24 24 25 28 30 30 30 30 30 30 30 28 25 22 16 8 14 23 28 29 28 28 30 30 29 29 29 28 27 27 27 29 32 32 31 32 36 38
3 3 3 2 3 4 5 6 5 5 7 9 10 12 12 11 11 11 11 11 11 11 11 11 12 11 10 11 11 8 6 7 9 8 7 6 6 5 6 9 12 14 17 18 19 23 25 25 25 26 26 29 31 31 31 30 30 29 29 27 24 21 17 14 9 8 15 20 23 24 24 24 22 23 25 27 28 29 29 27 27 29 30 31 32 35
Wind_Direction
199 219 214 215 230 220 216 217 234 259 260 267 274 277 280 268 261 231 237 251 186 155 160 160 149 148 155 164 163 160 171 166 154 184 179 158 170 168 159 168 172 176 182 179 177 176 172 168 168 168 164 164 165 167 170 173 170 168 167 166 168 173 170 166 165 164 166 164 161 163 165 167 171 168 168 170 169 171 175 175 172 173 174 173 177 179
196 226 226 216 226 232 235 224 222 240 254 269 276 281 287 279 280 263 248 245 173 144 159 162 151 151 159 166 167 164 168 170 175 183 172 162 171 163 155 160 158 169 180 179 178 178 173 165 169 171 164 165 166 166 171 174 172 169 168 167 169 172 172 169 167 167 168 167 165 166 170 174 174 170 170 171 172 173 173 173 172 173 175 177 180 182
199 224 239 232 231 230 240 243 232 229 235 253 265 276 283 278 288 280 265 245 173 146 160 166 160 152 152 157 164 165 166 181 186 176 167 171 174 171 174 169 161 161 174 183 181 178 175 167 171 174 167 168 169 167 171 174 174 171 170 169 170 172 173 171 170 171 172 170 170 171 173 175 172 172 174 170 173 176 173 170 172 174 177 180 182 183
222 212 222 232 242 236 234 241 245 243 232 234 244 259 269 270 280 282 281 269 213 161 158 161 154 141 141 149 164 170 170 180 180 169 168 176 180 183 184 174 166 167 177 191 185 178 174 170 173 174 169 170 169 168 172 174 175 174 172 171 171 172 174 173 172 174 175 171 170 173 175 175 171 170 173 165 169 177 174 169 172 177 178 182 186 185
242 233 216 215 226 238 242 236 235 245 247 232 228 239 260 269 270 274 289 292 285 189 156 147 126 141 159 162 172 176 173 179 173 166 169 178 184 182 179 175 170 174 184 196 191 181 175 175 176 172 170 170 169 170 173 174 176 175 173 173 173 174 175 176 175 174 177 174 171 173 175 176 174 173 176 175 171 173 174 171 173 179 181 185 188 188
238 249 239 220 213 223 240 244 233 227 242 249 225 219 235 263 271 276 292 304 319 294 156 142 128 199 187 174 173 171 172 180 174 167 170 178 182 178 177 180 178 184 190 198 198 184 176 178 177 171 171 172 169 172 175 175 177 177 175 174 175 176 176 178 177 174 178 178 175 178 180 177 177 178 183 189 181 173 176 177 176 182 187 187 186 188
224 234 244 244 225 212 220 237 245 234 231 251 239 220 216 240 264 272 287 299 305 296 183 162 156 173 193 187 178 173 173 178 179 176 174 174 179 181 181 181 181 189 192 199 200 186 178 177 175 172 174 175 172 174 176 175 177 178 176 175 176 178 178 180 180 176 177 180 179 183 188 184 180 180 185 191 188 179 180 183 181 184 189 189 185 188
241 231 233 248 247 227 216 217 231 239 240 233 246 253 230 221 245 261 272 269 264 297 275 235 202 135 177 202 188 175 170 174 184 189 181 175 178 182 185 183 183 188 190 195 197 187 181 175 174 175 176 177 175 174 175 176 178 180 179 177 177 179 180 182 183 181 179 181 182 185 191 191 186 184 185 188 188 184 182 186 188 187 187 185 185 191
267 240 220 248 254 243 234 216 207 221 240 247 248 264 260 229 231 245 255 251 260 294 290 286 305 139 187 199 188 174 170 177 191 197 189 179 179 183 186 186 185 187 187 191 194 190 182 176 176 177 177 178 176 174 176 177 178 181 182 180 179 180 182 183 185 186 184 184 184 186 190 194 191 186 185 184 185 187 186 189 193 191 186 182 183 190
287 287 308 297 273 250 250 249 224 213 223 239 250 266 279 273 256 252 259 263 261 253 261 278 292 281 224 189 177 170 177 188 193 195 189 182 181 183 185 186 185 187 186 188 194 194 184 179 179 177 177 178 177 176 177 178 179 180 182 182 182 182 183 185 187 188 189 188 187 187 190 195 192 185 185 184 183 186 190 191 193 194 191 184 181 187
289 296 304 294 276 264 251 254 252 242 239 235 241 258 275 290 307 299 295 340 22 247 259 271 271 282 279 192 173 176 189 190 188 188 184 182 184 184 184 185 185 186 187 188 192 194 186 182 180 176 175 178 179 177 176 178 179 180 181 184 185 185 184 186 188 189 190 190 189 189 190 194 193 185 183 184 184 184 188 192 192 194 196 191 182 185
274 281 285 275 280 281 260 256 256 250 261 262 244 248 258 285 311 310 344 19 358 271 280 284 276 268 270 215 179 190 195 186 182 184 181 181 185 186 184 184 186 186 186 185 186 188 187 183 179 175 175 179 180 177 176 178 179 180 182 184 186 187 187 188 189 190 190 191 192 191 191 193 194 189 183 184 188 188 190 194 192 191 196 195 187 185
256 249 258 272 278 279 265 271 274 250 249 249 236 218 199 222 269 272 336 12 237 260 284 296 292 261 251 244 196 198 198 187 186 187 182 180 182 185 185 182 184 186 186 184 181 182 186 187 183 178 176 178 180 180 178 178 180 181 183 184 186 188 190 190 190 191 191 191 193 194 192 193 194 194 189 187 190 192 194 195 192 190 192 194 191 189
283 243 239 258 269 256 227 239 275 279 238 231 219 179 163 172 218 230 197 200 244 269 266 274 287 270 251 271 228 199 190 185 191 192 185 183 182 181 182 180 181 184 186 188 184 180 183 186 186 181 177 177 181 182 180 179 180 181 183 185 187 190 191 190 190 192 193 193 194 195 195 194 194 195 194 193 194 195 197 198 196 193 192 193 194 194
330 290 272 337 326 298 250 224 235 279 266 238 235 179 214 203 206 224 178 169 204 234 227 233 252 210 179 263 268 250 206 181 188 192 186 185 183 179 178 177 179 183 185 188 189 185 182 183 185 181 178 179 182 182 181 181 181 182 184 186 188 190 191 191 192 192 194 195 196 196 196 196 196 196 196 196 198 199 199 200 200 198 197 197 197 199
325 305 334 344 325 312 310 273 244 267 286 236 192 216 243 239 240 250 242 225 213 223 225 215 220 193 187 237 261 267 259 206 187 187 186 188 184 176 176 178 181 185 185 184 186 186 182 180 182 183 181 181 183 183 182 182 183 183 185 187 188 190 191 193 193 193 195 196 197 197 198 197 197 196 196 197 198 200 201 201 202 202 202 203 202 201
344 293 321 340 322 319 344 338 300 235 234 285 212 204 214 228 243 247 265 282 277 265 261 230 226 210 199 237 252 261 266 255 212 182 180 184 180 175 180 181 183 187 186 184 183 183 182 178 179 183 184 183 183 184 185 184 185 185 185 186 188 189 192 194 195 196 196 197 197 199 199 199 198 197 198 198 198 200 201 203 204 205 205 207 207 205
5 292 309 342 320 324 349 339 320 237 199 231 270 230 196 216 261 267 255 280 272 258 253 247 250 206 182 226 238 246 261 260 253 193 171 175 177 179 183 183 184 187 186 185 183 181 181 179 178 181 185 185 184 185 188 187 186 185 185 186 187 189 191 195 197 198 198 198 198 199 200 201 200 200 200 201 201 201 202 203 205 205 206 207 210 210
6 308 305 337 328 331 344 336 328 302 208 214 268 297 326 160 263 256 244 247 245 265 261 264 276 229 188 199 199 216 236 241 249 221 167 170 177 180 185 186 185 186 183 182 181 179 180 180 180 180 183 186 185 185 187 187 186 186 186 186 188 190 192 194 197 199 200 200 200 201 202 202 202 202 202 202 203 202 202 204 204 204 206 207 209 211
13 317 288 328 360 340 330 312 348 2 294 253 294 303 289 252 243 239 247 235 218 255 265 269 284 264 216 199 186 202 214 214 230 223 168 170 176 180 185 185 182 181 180 181 178 177 180 180 182 182 182 184 185 185 186 186 186 186 187 186 188 190 191 193 196 199 201 202 203 203 203 203 203 203 203 203 203 203 203 204 204 204 205 206 207 209
0 43 283 317 352 341 311 292 357 5 344 314 320 313 300 307 292 278 270 244 227 237 255 273 275 272 258 224 188 199 210 211 218 215 172 172 176 178 181 178 178 180 178 177 177 177 180 180 182 184 185 185 186 186 186 187 187 187 187 188 187 188 190 192 195 198 200 202 203 204 204 204 204 203 204 204 204 204 204 204 204 205 205 205 205 206
350 7 311 310 332 328 300 304 323 335 324 315 324 313 307 321 304 283 262 244 241 219 220 268 277 265 266 299 331 241 218 211 212 207 170 170 173 176 177 176 176 175 175 177 178 179 180 181 182 183 185 186 186 187 187 188 189 189 189 189 188 188 189 192 194 197 200 202 203 205 206 205 204 203 203 203 204 205 205 204 205 205 204 204 205 205
345 302 308 305 307 302 295 298 306 310 304 301 302 296 303 339 333 305 290 296 297 243 216 219 266 274 273 313 328 304 227 194 200 202 157 163 171 173 173 177 177 173 175 178 177 177 179 181 181 180 182 184 185 187 188 190 192 191 190 189 189 190 190 192 194 197 199 201 203 205 206 205 204 204 203 203 204 205 205 205 205 205 204 205 206 206
345 306 343 320 306 302 296 294 297 313 328 307 298 332 346 351 346 321 311 354 343 307 263 198 208 272 285 308 328 322 274 177 181 181 148 150 166 173 173 174 176 175 175 177 177 176 176 178 180 179 181 183 184 186 188 191 193 192 189 189 191 192 192 192 193 196 198 201 203 204 205 206 205 204 203 203 204 205 206 205 205 205 205 205 206 207
344 357 18 340 319 318 307 301 309 359 9 336 313 341 345 347 353 345 344 19 13 353 353 335 201 251 306 350 0 354 355 16 164 174 169 147 149 168 176 174 177 179 176 176 177 174 172 175 179 180 181 183 185 187 188 190 192 193 193 193 192 192 192 193 194 195 198 200 202 203 204 205 204 204 204 204 204 205 205 205 204 205 205 205 205 206
337 334 356 329 303 300 296 309 331 355 352 319 313 332 335 345 354 350 344 350 330 347 351 326 257 304 337 357 7 8 9 11 20 36 67 168 149 156 171 186 189 187 179 176 176 174 174 176 177 177 178 182 185 188 188 189 191 193 196 196 194 190 190 193 194 196 198 199 200 202 203 203 203 204 204 203 204 205 204 204 204 204 205 205 205 205
337 309 293 255 253 268 277 291 302 309 312 303 311 323 324 331 340 332 322 337 321 319 310 285 331 339 336 343 359 14 19 20 24 31 30 10 16 134 168 184 189 188 184 180 177 174 173 175 177 178 179 182 186 187 188 189 191 192 196 199 196 191 189 191 193 196 198 199 200 202 203 203 203 203 204 203 203 204 204 204 204 204 205 205 205 205
280 272 278 268 263 266 273 281 288 295 298 299 303 311 313 320 329 324 316 327 327 321 304 317 341 343 321 317 339 14 22 24 24 28 31 22 10 11 38 68 139 174 180 180 180 180 178 177 177 178 180 184 186 187 188 189 191 192 195 199 198 192 189 189 192 195 197 198 200 202 202 203 203 203 203 203 203 203 203 203 204 205 205 205 205 206
270 259 271 274 275 277 277 278 283 289 293 293 294 299 305 309 313 312 311 315 310 289 280 307 321 326 308 307 339 13 20 30 29 23 27 27 16 15 34 46 55 80 99 89 69 82 169 177 181 183 185 187 187 186 185 187 191 193 196 200 198 193 190 189 191 194 196 197 199 201 202 202 202 203 203 203 203 203 203 203 203 204 204 205 205 206
349 285 281 279 284 289 286 283 285 289 291 290 288 291 297 299 300 299 297 300 295 282 279 293 299 296 292 309 1 357 9 30 28 22 28 29 22 24 40 49 48 49 51 53 47 40 42 50 54 112 171 189 189 187 187 187 191 194 196 199 198 194 191 190 191 193 196 198 199 200 201 201 201 202 203 202 202 203 203 203 202 203 203 204 205 206
48 308 299 298 295 295 298 297 293 291 290 287 286 285 285 287 289 287 283 284 284 280 289 303 302 291 290 10 16 342 18 34 27 26 30 28 23 26 39 44 42 43 42 41 48 49 44 40 39 42 43 39 43 49 69 212 209 204 198 194 195 196 193 191 191 194 195 197 198 198 198 200 200 201 202 203 203 203 203 203 202 202 202 203 204 205
83 302 304 309 294 290 299 299 295 292 285 279 279 281 280 279 280 281 281 281 283 292 311 313 300 292 323 12 17 7 21 33 35 34 29 22 20 20 29 36 34 36 36 31 36 43 36 25 26 50 57 53 56 55 38 14 349 284 232 205 196 194 194 193 192 194 196 196 195 196 197 198 199 200 202 202 202 203 203 203 203 203 202 202 203 203
178 242 291 306 294 291 293 293 296 296 283 270 273 279 275 268 262 266 271 272 271 279 298 298 290 318 347 22 41 25 15 24 39 40 30 18 16 14 20 27 25 24 28 25 26 36 37 17 359 21 55 56 57 72 78 61 45 281 274 270 231 199 193 195 195 194 195 195 194 196 197 197 198 200 201 202 203 203 203 203 203 204 203 203 202 202
252 277 306 298 284 290 298 302 305 298 281 276 286 288 286 285 280 276 284 289 277 270 290 331 349 356 359 22 45 33 25 35 41 44 38 22 12 10 13 18 16 13 16 17 16 23 34 18 350 358 27 31 26 56 94 136 180 197 218 249 257 223 201 196 197 194 194 195 194 195 197 197 198 199 201 202 202 202 203 204 204 205 205 204 202 201
206 252 283 285 261 290 313 313 296 272 265 276 285 294 303 309 319 326 324 347 3 351 3 26 26 10 351 353 13 19 37 52 44 39 36 26 16 11 8 8 8 5 5 5 5 5 9 7 358 0 5 358 354 20 71 224 227 220 216 216 227 227 211 199 197 195 194 195 194 195 196 197 198 199 200 201 201 201 203 204 205 206 205 204 203 202
205 192 184 169 188 287 317 286 264 277 293 292 291 297 301 306 335 352 338 25 33 21 22 42 42 23 359 352 358 350 347 59 55 34 26 24 19 14 9 3 360 358 357 356 355 353 351 352 357 358 353 345 343 351 0 321 262 240 231 223 222 221 210 201 200 196 194 196 195 194 196 196 197 199 199 200 201 201 202 204 205 206 206 205 204 204
210 198 189 189 195 192 243 252 266 298 300 289 284 294 303 314 2 1 306 39 35 15 10 28 35 27 9 354 350 332 312 37 60 26 14 16 15 14 11 3 353 350 350 348 345 344 346 347 348 344 338 335 332 325 319 314 299 277 258 240 228 217 205 201 202 198 195 196 196 195 196 196 197 198 199 199 200 202 202 203 204 205 205 205 204 203
225 209 178 183 209 208 242 259 269 285 280 272 275 308 330 336 339 332 282 248 27 11 8 21 31 25 10 357 351 338 327 38 48 12 8 10 8 7 6 1 354 347 345 344 342 343 343 342 338 332 328 325 321 318 316 313 307 300 292 281 258 230 210 204 204 202 198 197 197 196 195 196 197 198 199 200 201 202 202 202 203 204 204 205 204 204
335 306 147 177 224 233 245 253 249 247 255 280 318 328 335 332 327 327 297 240 1 3 6 20 30 26 12 2 1 2 17 41 11 348 9 12 7 4 360 355 353 347 342 341 341 340 338 334 330 328 327 325 320 319 318 316 311 301 288 281 275 252 223 211 208 206 202 200 198 197 195 196 198 199 199 201 202 203 202 202 202 203 204 205 206 205
307 33 148 215 228 231 235 240 249 253 271 354 345 330 326 327 330 326 283 239 351 351 359 20 28 25 13 3 11 26 39 31 336 332 9 15 9 6 0 353 349 346 342 340 340 338 335 332 330 329 327 323 319 318 315 310 306 299 286 276 269 257 238 223 215 210 205 201 198 197 197 197 198 200 200 202 203 203 203 202 202 202 203 205 206 206
290 250 198 216 234 244 240 239 253 257 310 10 344 326 319 318 318 301 271 272 323 327 347 15 27 29 16 3 13 26 13 351 329 347 17 16 7 5 360 351 346 343 340 338 337 338 336 333 329 326 321 318 315 313 310 306 299 290 283 275 264 255 249 236 222 212 205 200 197 198 198 198 199 200 201 202 203 203 204 203 202 202 202 204 205 206
315 321 222 209 234 248 235 244 266 258 26 6 338 328 327 313 274 266 298 300 287 309 358 10 20 36 22 0 5 1 338 333 338 8 28 18 1 358 354 349 345 341 339 338 337 337 336 331 327 323 321 321 318 313 311 308 300 289 282 275 264 257 255 244 224 211 204 199 197 198 199 199 200 199 200 201 202 203 205 204 203 203 202 202 204 205
163 283 299 278 266 267 232 232 250 243 28 4 345 342 357 346 302 303 313 306 299 318 358 359 358 20 19 3 1 345 333 332 338 13 38 19 356 352 351 349 346 340 339 338 337 336 335 330 327 325 323 321 317 315 313 309 301 292 281 272 267 262 257 245 222 209 202 198 197 198 199 199 199 199 199 200 201 203 205 204 204 204 202 202 203 204
173 186 299 311 46 297 253 229 239 270 336 7 358 320 298 305 308 312 316 312 310 324 344 342 343 353 353 354 350 338 337 335 334 359 38 17 349 348 349 347 345 341 339 337 335 335 333 329 327 326 325 322 318 316 313 307 303 298 288 280 273 263 253 241 220 206 200 198 196 198 199 199 199 199 198 199 200 202 204 204 204 204 203 202 203 203
171 148 169 231 216 241 258 267 297 321 336 347 325 270 276 298 319 330 324 315 311 320 328 322 318 326 334 340 338 334 337 333 331 352 33 15 345 345 348 345 341 337 337 338 338 336 333 331 330 329 327 324 321 318 315 311 308 303 299 296 284 262 246 233 214 201 198 198 196 196 198 198 198 199 198 199 200 200 202 203 202 203 203 202 202 203
120 101 116 243 268 283 265 262 297 341 339 321 309 300 290 299 325 344 329 312 309 315 320 317 313 314 317 317 318 319 321 325 329 344 10 4 344 344 346 346 343 338 336 340 342 338 334 333 333 333 332 327 323 322 321 318 316 311 311 311 295 262 239 224 208 199 197 197 196 196 197 197 198 199 198 199 200 201 202 202 202 203 203 202 203 205
74 63 334 268 283 299 271 248 21 354 319 302 307 328 348 329 335 343 322 305 308 313 313 309 307 307 305 299 295 294 303 316 323 327 338 352 352 347 347 347 345 339 336 337 340 339 337 337 337 337 335 329 326 328 326 321 321 320 321 323 309 263 231 214 203 199 197 196 195 195 195 195 197 198 199 199 200 201 202 203 203 204 204 203 204 205
83 32 313 282 283 280 268 292 360 336 306 298 338 343 337 338 338 331 318 309 308 306 303 302 301 299 296 294 296 299 303 308 311 311 318 8 14 348 345 346 342 338 336 338 341 343 342 340 340 341 337 331 331 332 326 321 325 328 327 332 329 285 228 208 200 199 198 195 194 194 194 196 196 196 197 200 201 202 203 203 204 205 205 205 204 203
148 297 314 315 294 276 271 320 354 334 308 321 343 329 323 328 325 319 316 311 304 301 302 305 304 300 298 298 300 304 304 302 306 313 314 1 84 0 344 345 339 335 337 341 343 346 345 341 341 344 342 336 336 334 327 324 328 332 331 334 338 330 264 211 201 199 198 195 194 193 193 195 196 196 198 201 202 204 205 204 206 209 210 209 208 207
167 249 278 308 289 278 297 345 348 324 300 305 315 315 317 321 314 308 308 305 300 300 305 307 302 298 297 296 291 291 300 299 303 314 320 331 36 17 350 349 340 334 339 346 347 349 349 345 344 347 345 340 337 334 330 328 329 332 336 337 337 339 333 287 219 205 200 196 194 194 193 193 195 197 198 200 203 204 204 203 205 208 211 213 214 213
174 198 192 225 257 267 296 317 317 293 282 290 299 305 308 308 304 302 303 302 300 301 302 301 298 294 293 293 288 281 283 289 294 306 325 337 338 334 345 355 349 340 341 345 349 353 354 351 347 347 345 341 338 334 330 329 330 333 339 343 341 338 337 336 318 251 212 200 195 193 190 189 193 199 202 203 203 202 199 199 203 207 209 212 215 215